Weather History for KFUL - October, 2011

Change the Weather History Date:

Friday, October 28, 2011

  Actual Average Record
Temperature  
Mean Temperature 67 °F 66 °F  
Max Temperature 85 °F 77 °F 94 °F (2008)
Min Temperature 48 °F 55 °F 48 °F (2011)
Degree Days  
Heating Degree Days 0 2  
Month to date heating degree days 9 15  
Since 1 July heating degree days 9 16  
Cooling Degree Days 2 2  
Month to date cooling degree days 137 107  
Year to date cooling degree days 1161 1225  
Growing Degree Days 16 (Base 50)    
Moisture  
Dew Point 32 °F    
Average Humidity 37    
Maximum Humidity 66    
Minimum Humidity 8    
Precipitation  
Precipitation 0.00 in 0.04 in 0.02 in (2013)
Month to date precipitation 0.70 0.65  
Year to date precipitation 6.33 10.63  
Since 1 July precipitation 0.76 0.98  
Snow  
Snow 0.00 in - - ()
Month to date snowfall 0.0  
Year to date snowfall 0.0  
Since 1 July snowfall 0.0  
Snow Depth 0.00 in    
Sea Level Pressure  
Sea Level Pressure 30.01 in    
Wind  
Wind Speed 2 mph (West)    
Max Wind Speed 8 mph    
Max Gust Speed 20 mph    
Visibility 10 miles    
Events      
T = Trace of Precipitation, MM = Missing Value Source: NWS Daily Summary

Daily Weather History Graph

Daily Weather History Graph

Search for Another Location

Airport or City:

Trip Planner

Search our weather history database for the weather conditions in past years. The results will help you decide how hot, cold, wet, or windy it might be!

Date:

Astronomy

Oct. 28, 2011 Rise Set
Actual Time 7:07 AM PDT 6:03 PM PDT
Civil Twilight 6:41 AM PDT 6:28 PM PDT
Nautical Twilight 6:12 AM PDT 6:58 PM PDT
Astronomical Twilight 5:43 AM PDT 7:27 PM PDT
Moon 9:20 AM PDT (10/28) 7:39 PM PDT (10/28)
Length of Visible Light 11h 47m
Length of Day
10h 55m
Waxing Crescent, 6% of the Moon is Illuminated
Oct 28
Waxing Crescent
Nov 2
First Quarter
Nov 10
Full
Nov 18
Last Quarter
Nov 24
New

Hourly Weather History & Observations

Time (PDT) Temp. Dew Point Humidity Pressure Visibility Wind Dir Wind Speed Gust Speed Precip Events Conditions
12:53 AM 54.0 °F 42.1 °F 64% 30.01 in 10.0 mi Calm Calm - N/A   Clear
1:53 AM 53.1 °F 37.9 °F 57% 30.02 in 10.0 mi SE 3.5 mph - N/A   Clear
2:53 AM 52.0 °F 39.0 °F 61% 30.01 in 10.0 mi Calm Calm - N/A   Clear
3:53 AM 50.0 °F 37.9 °F 63% 30.00 in 10.0 mi Calm Calm - N/A   Clear
4:53 AM 51.1 °F 37.0 °F 59% 29.99 in 10.0 mi Calm Calm - N/A   Clear
5:53 AM 48.9 °F 37.9 °F 66% 30.00 in 10.0 mi Calm Calm - N/A   Clear
6:53 AM 48.9 °F 37.9 °F 66% 30.02 in 10.0 mi Calm Calm - N/A   Clear
7:53 AM 53.1 °F 37.0 °F 55% 30.03 in 9.0 mi Calm Calm - N/A   Clear
8:53 AM 61.0 °F 34.0 °F 36% 30.05 in 10.0 mi East 3.5 mph - N/A   Clear
10:53 AM 73.9 °F 28.9 °F 19% 30.06 in 10.0 mi Calm Calm - N/A   Clear
11:53 AM 80.1 °F 27.0 °F 14% 30.04 in 10.0 mi Variable 3.5 mph - N/A   Clear
12:53 PM 82.9 °F 19.9 °F 10% 30.02 in 10.0 mi Variable 3.5 mph - N/A   Clear
1:53 PM 84.0 °F 19.0 °F 9% 29.99 in 10.0 mi WNW 5.8 mph - N/A   Clear
2:53 PM 84.9 °F 16.0 °F 8% 29.98 in 10.0 mi Variable 4.6 mph - N/A   Clear
3:53 PM 84.0 °F 23.0 °F 11% 29.96 in 10.0 mi West 4.6 mph - N/A   Clear
4:53 PM 82.0 °F 26.1 °F 13% 29.96 in 10.0 mi West 5.8 mph - N/A   Clear
6:53 PM 72.0 °F 25.0 °F 17% 30.00 in 10.0 mi WNW 3.5 mph - N/A   Clear
7:53 PM 66.0 °F 30.9 °F 27% 30.02 in 10.0 mi Calm Calm - N/A   Clear
8:53 PM 63.0 °F 30.9 °F 30% 30.03 in 10.0 mi Calm Calm - N/A   Clear
9:53 PM 62.1 °F 33.1 °F 34% 30.04 in 10.0 mi Calm Calm - N/A   Clear
10:53 PM 60.1 °F 34.0 °F 38% 30.04 in 10.0 mi Calm Calm - N/A   Clear
11:53 PM 55.9 °F 39.0 °F 53% 30.03 in 10.0 mi Calm Calm - N/A   Clear